#timestamp,LO_Frequency,Hit,StdDev 
1546578015.1,286046999.0,N
1546578016.0,286046999.0,N
1546578035.8,286047000.7,N
1546578055.7,286046998.4,N
1546578075.5,286046996.5,N
1546578095.3,286046996.8,N
1546578115.2,286046996.6,N
1546578135.0,286046997.0,N
1546578135.9,286046997.0,N
1546578155.7,286046997.0,N
1546578175.6,286046999.4,N
1546578195.4,286046998.2,N
1546578215.3,286046996.6,N
1546578235.1,286046995.3,N
1546578236.0,286046995.3,N
1546578255.8,286046998.0,N
1546578275.7,286046997.5,N
1546578295.5,286046997.1,N
1546578315.3,286046997.4,N
1546578335.2,286046994.9,N
1546578355.0,286046995.9,N
1546578355.9,286046995.9,N
1546578375.8,286046993.4,Y
1546578395.6,286046999.2,P
1546578415.4,286046999.3,N
1546578435.3,286046998.7,N
1546578455.1,286046998.1,Y
1546578475.9,286047001.2,P
1546578495.7,286047000.5,N
1546578515.5,286047000.9,N
1546578535.4,286047001.0,N
1546578555.2,286046999.5,N
1546578575.0,286046998.4,N
1546578575.9,286046998.4,N
1546578595.8,286046999.1,N
1546578615.6,286046996.6,Y
1546578635.5,286046999.3,P
1546578655.3,286046999.9,N
1546578675.1,286047000.9,P
1546578695.9,286046998.8,N
1546578715.7,286046998.5,N
1546578735.5,286046998.8,N
1546578755.4,286046999.5,N
1546578775.2,286046998.4,N
1546578795.1,286047000.9,N
1546578796.0,286047000.9,N
1546578815.8,286046998.6,N
1546578835.6,286046998.8,N
1546578855.5,286046996.6,Y
1546578875.3,286046999.6,P
1546578895.2,286046996.6,P
1546578915.9,286046996.9,N
1546578935.7,286046999.3,N
1546578955.6,286046999.6,N
1546578975.4,286046998.3,N
1546578995.2,286046999.1,N
1546579015.1,286046999.5,N
1546579016.0,286046999.5,N
1546579035.8,286046998.8,N
1546579055.7,286046999.6,N
1546579075.5,286046996.8,Y
1546579095.3,286046998.5,P
1546579115.2,286046998.6,P
1546579135.0,286046999.6,N
1546579135.9,286046999.6,N
1546579155.7,286046997.5,Y
1546579175.6,286046997.8,P
1546579195.4,286046996.6,P
1546579215.3,286046999.2,N
1546579235.1,286046999.2,N
1546579255.8,286046999.4,N
1546579275.7,286046998.8,N
1546579295.5,286046999.5,N
1546579315.4,286046999.4,N
1546579335.2,286046998.3,N
1546579355.0,286046998.3,N
1546579355.9,286046998.3,N
1546579375.8,286047000.1,N
1546579395.6,286047000.1,N
1546579415.4,286047000.9,N
1546579435.3,286047000.7,N
1546579455.1,286047000.8,N
1546579475.9,286046999.0,N
1546579495.7,286046999.6,N
1546579515.5,286046997.0,N
1546579535.4,286046996.5,Y
1546579555.2,286046998.6,P
1546579575.1,286046998.1,P
1546579576.0,286046998.1,P
1546579595.8,286046999.8,N
1546579615.7,286046999.9,N
1546579635.5,286047000.7,N
1546579655.3,286046998.5,N
1546579675.2,286047001.1,N
1546579695.1,286047000.0,N
1546579696.0,286047000.0,N
1546579715.8,286046999.8,N
1546579735.7,286047002.3,N
1546579755.5,286047002.3,N
1546579775.3,286047002.7,N
1546579795.2,286047002.4,N
1546579815.0,286046999.8,N
1546579815.9,286046999.8,N
1546579835.8,286046999.7,N
1546579855.6,286046999.8,N
1546579875.4,286047002.0,N
1546579895.3,286047001.9,N
1546579915.1,286047002.5,N
1546579935.8,286047001.6,N
1546579955.7,286047004.1,N
1546579975.5,286047003.2,N
1546579995.4,286047004.4,N
1546580015.2,286047004.3,N
1546580035.0,286047003.8,N
1546580035.9,286047003.8,N
1546580055.8,286047002.7,N
1546580075.6,286047000.4,N
1546580095.4,286047000.7,N
1546580115.3,286047002.6,N
1546580135.1,286047000.1,N
1546580155.9,286046998.7,N
1546580175.7,286046996.5,N
1546580195.5,286046997.7,N
1546580215.4,286046999.2,N
1546580235.2,286046997.1,N
1546580255.1,286046997.2,N
1546580256.0,286046997.2,N
1546580275.8,286046997.2,N
1546580295.6,286046997.3,N
1546580315.8,286046995.1,N
1546580335.6,286046993.3,N
1546580385.5,286046995.9,E
1546580395.4,286046999.0,N
1546580415.2,286046998.1,P
1546580435.1,286046998.4,P
1546580436.0,286046998.4,Y
1546580455.8,286047000.0,P
1546580475.7,286047000.1,N
1546580495.5,286047000.3,N
1546580515.3,286047000.5,N
1546580535.2,286047000.3,N
1546580555.0,286047002.6,Y
1546580555.9,286047002.6,P
1546580575.7,286047000.8,N
1546580595.6,286047000.6,N
1546580615.4,286046998.1,N
1546580635.3,286046999.4,N
1546580655.1,286046999.6,N
1546580675.9,286046996.6,N
1546580695.7,286046998.8,N
1546580715.5,286046998.6,N
1546580735.4,286046998.2,N
1546580755.2,286046998.6,N
1546580775.0,286047000.4,N
1546580775.9,286047000.4,N
1546580795.8,286046998.5,N
1546580815.6,286047001.2,N
1546580835.5,286047000.9,N
1546580855.3,286047000.6,N
1546580875.1,286047000.6,N
1546580895.9,286046998.5,N
1546580915.7,286047000.6,N
1546580935.5,286047000.6,N
1546580955.4,286047002.4,N
1546580975.2,286047000.5,N
1546580995.1,286047000.0,N
1546580996.0,286047000.0,N
1546581015.8,286046999.7,N
1546581035.6,286047000.5,N
1546581055.5,286047000.6,N
1546581075.3,286047000.9,N
1546581095.1,286047000.4,N
1546581115.9,286047001.2,N
1546581135.7,286047000.8,N
1546581155.6,286047001.0,N
1546581175.4,286046999.9,N
1546581195.2,286047000.0,N
1546581215.1,286047000.9,N
1546581216.0,286047000.9,N
1546581235.8,286046998.2,N
1546581255.7,286047000.3,N
1546581275.5,286047001.1,N
1546581295.3,286047000.3,N
1546581315.2,286047001.5,N
1546581335.9,286047004.4,Y
1546581355.7,286047000.2,P
1546581375.6,286047002.4,P
1546581395.1,286047000.1,N
1546581396.0,286047000.1,N
1546581415.8,286047002.7,Y
1546581435.1,286046999.9,P
1546581455.9,286047000.5,N
1546581475.7,286047000.7,N
1546581495.5,286047000.7,N
1546581515.4,286047001.1,Y
1546581535.2,286046998.8,P
1546581555.1,286046998.5,N
1546581575.6,286047000.8,N
1546581595.5,286047001.1,N
